Wind_Speed
15 15 15 16 15 14 14 14 14 14 14 14 14 15 15 15 17 18 18 19 20 21 21 21 21 21 20 20 20 19 18 17 15 13 11 9 7 5 4 2 3 4 6 8
15 15 16 17 16 15 14 15 15 15 15 15 15 15 16 16 16 17 18 19 19 20 21 21 21 21 20 20 20 20 18 17 16 15 14 12 11 9 7 5 4 3 4 6
14 15 15 16 16 15 15 15 16 16 15 15 15 16 16 17 17 18 19 19 20 20 21 21 21 20 20 20 20 19 19 18 17 15 14 13 12 11 9 8 7 5 5 6
13 14 14 14 15 15 15 15 15 15 14 14 15 15 15 16 17 18 18 19 19 20 21 21 21 21 20 20 20 20 20 19 18 17 16 15 14 13 12 10 9 7 6 6
13 13 13 13 13 13 13 13 14 13 13 13 14 14 15 15 16 16 17 18 18 19 19 20 20 20 20 20 20 20 20 20 19 18 17 16 16 14 13 12 11 9 8 8
11 11 12 12 11 11 11 11 12 12 12 12 13 13 14 14 15 16 16 16 17 17 18 19 19 19 19 20 20 20 20 20 20 19 18 18 17 17 16 14 13 11 10 9
8 9 10 11 10 10 10 9 9 10 11 11 12 12 12 13 13 14 15 15 16 16 17 17 18 19 19 20 20 20 20 20 20 20 19 19 19 18 17 16 15 13 12 11
6 7 8 8 9 9 9 8 8 8 9 9 10 11 11 12 12 13 14 15 15 16 16 17 17 18 18 19 20 20 20 20 20 20 20 20 19 19 19 17 16 15 14 13
5 5 6 7 7 8 8 8 8 7 7 8 8 9 10 10 11 11 12 13 14 15 15 16 17 17 18 19 19 20 21 21 21 21 21 20 20 19 19 19 18 17 16 15
6 6 6 6 6 7 7 8 8 7 7 7 7 8 8 9 9 10 10 11 12 13 14 15 15 16 17 18 18 19 20 21 21 20 20 21 20 20 20 20 19 18 17 17
9 8 8 7 7 7 7 7 8 8 8 8 7 8 8 8 9 9 9 10 10 11 12 13 14 15 16 17 17 18 19 20 20 20 20 20 20 20 20 20 20 20 19 18
12 11 10 10 9 8 8 7 7 8 8 8 8 8 8 8 8 8 8 9 9 10 10 11 12 13 14 15 16 17 18 18 19 19 19 19 19 20 20 20 20 20 19 19
14 14 13 13 12 11 10 9 9 8 8 8 8 8 8 8 8 8 8 8 8 9 9 10 10 11 12 13 14 15 16 17 18 18 18 18 18 18 19 19 19 19 19 19
17 17 16 15 15 14 14 13 12 11 10 9 9 8 8 8 8 8 8 8 8 8 9 9 9 10 10 11 12 13 14 15 15 16 16 16 17 17 17 17 17 18 18 18
20 19 19 18 17 17 16 16 15 14 13 12 11 10 10 9 9 9 9 9 8 8 8 8 9 9 9 10 10 11 12 13 14 14 15 15 15 15 15 16 16 16 16 16
23 22 22 21 20 20 19 19 18 17 16 15 14 13 12 11 10 10 9 9 9 9 9 9 8 9 9 9 9 10 10 11 12 12 12 13 13 13 13 14 14 14 14 14
27 26 25 24 24 23 23 22 21 20 19 19 18 16 15 14 13 12 11 11 10 10 9 9 9 9 9 9 9 9 9 9 9 10 11 11 11 11 12 11 12 12 12 12
31 30 29 28 27 26 25 25 24 24 23 22 20 20 19 18 17 15 14 13 12 11 11 10 10 10 9 9 9 9 8 8 8 8 9 9 9 9 9 10 10 10 10 10
36 34 33 32 31 29 29 28 27 27 26 24 23 22 22 21 20 18 17 16 15 14 13 13 12 12 11 11 10 10 9 9 9 8 8 8 8 8 8 8 7 8 8 8
41 39 38 36 35 33 32 32 31 30 29 28 27 26 25 24 23 21 21 20 19 18 17 16 15 14 14 13 12 12 11 11 10 10 9 9 9 8 8 7 7 7 6 6
46 45 43 41 39 38 37 35 34 33 32 31 30 29 28 27 26 24 23 23 22 20 20 19 19 18 17 16 15 14 14 13 12 12 11 11 10 10 9 9 8 8 7 7
51 50 48 46 45 43 42 40 39 37 36 35 34 33 32 31 29 28 27 26 25 23 23 22 22 21 20 20 19 18 17 16 15 15 14 14 13 13 12 11 11 11 10 10
55 54 53 51 49 48 47 45 43 42 40 39 38 37 36 35 33 32 31 30 28 27 26 25 24 24 23 22 22 21 20 20 19 18 18 17 17 16 16 15 15 14 14 13
59 58 57 56 54 53 51 50 48 47 46 45 43 42 41 39 37 36 35 34 32 31 30 29 28 27 26 25 25 24 24 23 22 22 21 21 20 20 19 19 19 19 18 18
62 62 61 60 59 58 56 55 54 52 51 50 48 47 45 44 42 41 40 38 37 36 35 34 32 31 30 29 29 28 27 27 26 25 25 24 24 24 23 23 22 22 22 22
65 65 65 64 64 63 61 60 59 57 56 55 53 52 50 48 47 46 44 43 42 41 40 38 37 36 35 34 33 32 32 31 30 30 29 29 28 28 28 27 27 26 25 25
66 66 67 68 67 67 66 65 64 62 61 60 58 57 56 54 52 51 50 48 47 45 44 43 42 41 40 39 38 37 37 36 36 35 34 34 33 33 32 32 31 31 30 30
Wind_Direction
34 33 31 32 33 34 36 36 36 36 38 41 45 49 49 49 50 51 51 49 48 48 48 49 50 50 50 49 48 46 48 46 45 45 44 44 41 35 26 4 303 264 259 259
38 36 35 35 37 40 40 40 40 43 47 49 52 53 53 53 52 51 50 50 49 49 48 49 50 49 48 47 46 46 44 42 40 41 42 38 34 29 21 7 346 310 287 283
38 37 37 38 39 42 44 45 47 49 53 55 55 55 55 54 53 51 51 51 50 50 50 49 49 48 46 46 44 42 41 39 40 40 39 36 33 27 21 12 2 342 320 306
37 36 37 36 40 43 45 47 50 53 55 56 55 55 54 54 55 54 53 52 50 49 48 47 47 47 45 43 41 40 39 38 37 36 35 33 30 28 25 21 12 3 353 336
35 35 36 35 38 40 43 48 49 50 52 54 55 54 54 54 54 52 50 48 47 46 45 44 45 44 42 41 39 39 37 36 35 33 32 30 29 27 25 23 20 16 9 358
30 32 32 32 34 36 40 46 46 48 49 51 51 50 50 50 48 45 44 44 44 43 41 41 41 41 40 39 37 37 35 34 33 33 32 31 30 29 27 26 24 21 18 13
21 24 27 27 29 31 36 38 41 42 44 46 46 45 44 43 42 41 42 42 41 40 39 40 40 40 39 38 37 36 35 34 33 33 34 33 32 31 29 29 28 26 26 25
1 10 15 16 20 24 25 27 30 31 33 35 37 37 37 37 38 38 39 40 40 39 39 40 40 39 39 38 37 36 35 35 34 34 35 34 33 32 32 32 32 33 35 36
318 340 354 2 7 9 12 15 16 16 17 20 22 25 27 30 32 33 34 35 37 38 39 39 39 39 38 37 37 36 35 35 36 36 36 36 35 35 35 36 38 40 43 44
282 295 314 332 344 351 354 358 1 1 2 3 7 10 13 17 21 23 25 27 29 32 35 36 37 36 36 36 36 36 36 36 36 37 37 37 37 38 39 41 43 45 47 49
270 274 283 297 312 323 333 340 345 349 350 352 356 359 2 5 9 14 17 20 23 27 30 32 34 34 34 34 34 34 35 35 36 36 37 38 39 40 41 43 45 48 50 52
265 268 271 278 287 296 305 315 326 333 338 342 345 348 351 353 358 2 7 11 14 17 21 24 27 30 31 31 31 32 33 34 35 36 38 39 40 42 43 44 46 49 51 52
263 265 267 270 273 279 285 292 300 310 320 326 331 336 339 341 344 349 355 360 5 9 12 14 18 21 24 25 27 28 30 31 33 34 37 39 41 43 44 46 47 49 51 53
261 263 266 268 270 272 275 278 283 288 295 303 311 317 324 329 334 339 343 347 351 357 1 4 7 10 14 17 19 22 24 27 29 31 33 36 39 41 44 46 48 50 52 54
261 262 264 266 268 269 271 272 274 276 280 284 290 297 303 309 316 322 328 333 336 341 346 352 356 359 2 6 10 13 17 21 24 27 30 32 35 38 41 43 46 48 50 53
260 262 263 264 266 267 268 269 270 272 273 275 278 282 287 293 299 305 310 316 322 325 329 333 340 346 350 355 359 4 9 14 18 21 24 27 30 33 36 39 42 45 47 49
260 261 262 263 264 265 266 267 268 269 270 271 272 274 277 280 285 290 295 300 305 310 315 321 324 328 333 338 343 347 352 358 5 12 16 20 23 26 29 32 36 39 41 44
257 258 260 261 262 263 264 265 265 266 267 268 270 270 271 273 276 278 282 286 291 296 299 303 309 315 319 322 326 330 333 337 342 348 357 5 11 16 19 23 27 30 33 36
255 256 257 258 259 260 261 262 263 264 265 266 267 267 268 270 271 272 274 276 280 283 287 290 294 298 303 308 311 314 317 319 322 326 331 337 345 353 360 4 9 14 19 23
253 254 255 256 257 258 259 260 261 262 263 263 264 265 266 267 268 269 270 271 273 275 277 280 283 287 290 294 298 301 303 304 306 309 312 315 318 322 328 335 340 343 348 352
251 252 253 253 254 255 256 257 258 259 260 261 262 263 264 265 266 267 267 268 270 271 273 274 277 279 281 283 286 289 291 292 293 294 296 299 301 303 305 307 311 315 316 317
249 250 251 251 252 253 254 255 256 257 258 258 259 260 261 262 263 264 265 266 268 269 269 271 273 275 276 278 279 281 282 283 284 284 285 286 288 289 291 292 293 295 296 298
247 247 248 249 249 250 251 252 253 254 255 256 257 258 259 260 261 262 262 263 265 266 267 268 269 271 273 274 275 276 277 277 278 279 279 279 279 280 281 282 283 283 285 285
245 245 246 247 247 248 248 249 250 251 252 253 254 256 257 258 259 259 260 261 262 263 264 265 267 268 269 270 271 272 273 274 274 275 275 275 275 276 277 277 277 277 277 277
244 244 244 244 245 246 246 247 248 249 250 251 253 254 255 255 256 257 258 259 260 261 262 263 265 266 267 268 269 269 270 271 271 272 272 272 272 273 273 273 274 274 274 273
245 243 243 243 243 244 245 245 246 247 248 249 251 252 253 254 255 256 257 257 258 259 261 262 263 264 265 266 267 267 268 268 269 269 270 270 271 271 271 271 271 271 271 271
245 243 242 241 242 242 243 244 244 245 246 247 249 250 251 252 253 254 255 257 258 259 260 261 262 263 263 264 265 266 266 267 267 267 268 268 268 269 269 269 269 269 268 268
Height
5885 5882 5878 5875 5872 5869 5866 5863 5860 5857 5854 5851 5848 5845 5842 5839 5836 5833 5830 5827 5823 5819 5816 5812 5809 5806 5803 5800 5797 5793 5791 5788 5786 5783 5782 5780 5779 5777 5776 5776 5775 5774 5775 5774
5886 5883 5880 5877 5873 5870 5868 5865 5862 5859 5857 5853 5851 5848 5845 5842 5840 5837 5833 5830 5827 5824 5820 5817 5813 5810 5807 5804 5801 5798 5795 5792 5789 5786 5784 5782 5780 5778 5776 5775 5774 5773 5772 5772
5888 5885 5882 5879 5876 5873 5870 5867 5865 5862 5860 5856 5854 5851 5849 5846 5843 5840 5837 5834 5831 5828 5825 5821 5818 5815 5811 5808 5805 5802 5799 5795 5792 5789 5787 5784 5781 5779 5777 5775 5773 5772 5770 5769
5889 5888 5884 5884 5878 5876 5873 5870 5867 5864 5862 5860 5857 5855 5852 5849 5847 5844 5841 5838 5835 5832 5829 5826 5822 5819 5816 5812 5809 5805 5802 5799 5795 5792 5789 5786 5783 5780 5778 5775 5773 5771 5769 5767
5891 5888 5886 5884 5881 5878 5875 5873 5870 5868 5865 5863 5860 5858 5856 5853 5850 5848 5845 5842 5839 5836 5833 5830 5826 5823 5820 5816 5813 5809 5805 5802 5798 5795 5792 5788 5785 5782 5779 5776 5773 5771 5769 5766
5892 5890 5888 5887 5883 5880 5879 5876 5873 5870 5868 5865 5863 5861 5859 5856 5853 5851 5848 5845 5842 5839 5836 5833 5830 5826 5823 5820 5816 5812 5809 5805 5802 5798 5794 5791 5787 5783 5780 5777 5774 5771 5769 5766
5892 5891 5889 5887 5884 5882 5881 5879 5875 5873 5870 5868 5866 5864 5862 5859 5856 5854 5851 5848 5845 5843 5840 5836 5833 5830 5827 5823 5819 5816 5812 5808 5805 5801 5797 5793 5790 5786 5782 5779 5776 5772 5769 5767
5892 5891 5891 5887 5885 5883 5882 5879 5876 5874 5872 5870 5868 5866 5863 5861 5858 5856 5853 5851 5848 5845 5842 5839 5836 5833 5830 5826 5823 5819 5816 5812 5808 5804 5800 5796 5793 5789 5785 5781 5778 5774 5771 5768
5892 5893 5890 5887 5885 5884 5882 5879 5877 5875 5873 5871 5869 5867 5865 5863 5860 5858 5856 5853 5851 5848 5845 5842 5839 5836 5833 5830 5826 5823 5819 5815 5811 5807 5803 5800 5796 5792 5788 5784 5781 5777 5774 5771
5890 5889 5888 5886 5885 5883 5881 5879 5877 5876 5874 5872 5870 5868 5866 5864 5862 5859 5857 5855 5853 5850 5847 5845 5842 5839 5836 5832 5829 5826 5822 5818 5815 5811 5807 5803 5799 5796 5792 5788 5784 5781 5778 5775
5887 5887 5886 5884 5883 5882 5880 5879 5877 5875 5874 5872 5870 5868 5866 5864 5862 5860 5858 5856 5854 5851 5849 5847 5844 5841 5838 5835 5832 5829 5825 5822 5818 5814 5811 5807 5803 5800 5796 5792 5789 5786 5782 5779
5884 5884 5883 5883 5881 5880 5879 5878 5876 5875 5873 5871 5869 5868 5866 5864 5862 5861 5859 5857 5854 5852 5850 5848 5845 5843 5840 5837 5834 5831 5828 5825 5821 5818 5814 5811 5807 5804 5800 5797 5794 5790 5787 5784
5880 5880 5879 5879 5878 5877 5876 5875 5874 5873 5872 5870 5869 5867 5865 5864 5862 5860 5859 5857 5855 5853 5851 5848 5846 5844 5842 5839 5836 5834 5831 5828 5824 5821 5818 5815 5811 5808 5805 5802 5798 5795 5792 5790
5875 5875 5875 5874 5874 5873 5873 5872 5871 5870 5869 5868 5867 5865 5864 5862 5861 5859 5858 5856 5854 5853 5851 5849 5847 5845 5842 5840 5838 5835 5833 5830 5827 5824 5821 5818 5815 5812 5809 5806 5803 5800 5798 5795
5869 5869 5869 5869 5869 5869 5868 5868 5867 5867 5866 5865 5864 5863 5862 5861 5859 5858 5857 5855 5854 5852 5850 5848 5846 5845 5843 5840 5838 5836 5834 5831 5829 5826 5824 5821 5818 5815 5812 5810 5807 5804 5802 5800
5862 5862 5863 5863 5863 5863 5863 5863 5863 5862 5862 5861 5860 5860 5859 5858 5857 5856 5855 5853 5852 5851 5849 5847 5846 5844 5842 5840 5838 5836 5834 5832 5830 5828 5825 5823 5820 5818 5815 5813 5810 5808 5806 5804
5854 5855 5855 5856 5856 5856 5857 5857 5857 5856 5856 5856 5856 5855 5855 5854 5853 5853 5852 5851 5850 5848 5847 5846 5844 5843 5841 5839 5838 5836 5834 5832 5830 5828 5826 5824 5822 5820 5817 5815 5813 5811 5809 5807
5844 5845 5846 5848 5848 5849 5849 5849 5850 5850 5850 5850 5850 5850 5849 5849 5849 5848 5848 5847 5846 5845 5844 5843 5842 5841 5839 5838 5836 5835 5833 5831 5830 5828 5826 5825 5823 5821 5819 5817 5815 5813 5811 5809
5833 5835 5836 5837 5838 5839 5840 5841 5841 5842 5842 5843 5843 5843 5843 5843 5843 5843 5843 5842 5841 5841 5840 5839 5838 5837 5836 5835 5834 5832 5831 5830 5828 5827 5825 5824 5822 5821 5819 5817 5816 5814 5812 5811
5819 5822 5824 5826 5827 5829 5830 5831 5832 5833 5834 5834 5835 5835 5835 5836 5836 5836 5836 5836 5836 5836 5835 5834 5834 5833 5832 5831 5830 5829 5828 5827 5826 5824 5823 5822 5821 5819 5818 5817 5815 5814 5812 5811
5805 5807 5810 5812 5815 5817 5818 5820 5821 5822 5824 5825 5826 5826 5827 5827 5828 5828 5828 5829 5829 5829 5829 5828 5828 5827 5827 5826 5825 5825 5824 5823 5822 5821 5820 5819 5818 5817 5816 5815 5813 5812 5811 5810
5788 5791 5795 5797 5800 5803 5805 5807 5809 5810 5812 5814 5815 5816 5817 5818 5818 5819 5820 5820 5821 5821 5821 5821 5821 5821 5820 5820 5819 5819 5818 5818 5817 5816 5815 5815 5814 5813 5812 5811 5810 5809 5808 5807
5771 5774 5777 5781 5784 5787 5789 5792 5795 5797 5799 5801 5802 5804 5805 5807 5808 5809 5810 5811 5811 5812 5812 5812 5812 5813 5812 5812 5812 5812 5811 5811 5811 5810 5810 5809 5808 5808 5807 5806 5806 5805 5804 5803
5752 5756 5759 5762 5766 5769 5773 5776 5779 5781 5784 5786 5788 5790 5792 5794 5796 5797 5798 5799 5801 5801 5802 5802 5803 5803 5803 5803 5803 5803 5803 5803 5803 5803 5803 5802 5802 5801 5801 5800 5800 5799 5799 5798
5731 5736 5739 5743 5747 5750 5754 5757 5761 5764 5767 5770 5773 5775 5777 5779 5782 5783 5785 5787 5788 5789 5790 5791 5792 5792 5793 5793 5794 5794 5794 5794 5794 5794 5794 5794 5794 5793 5793 5792 5792 5792 5791 5791
5708 5713 5718 5722 5726 5730 5733 5737 5741 5745 5749 5752 5755 5758 5761 5763 5765 5768 5770 5772 5773 5775 5776 5777 5779 5780 5781 5782 5782 5783 5783 5783 5784 5784 5784 5784 5784 5784 5784 5784 5783 5783 5783 5782
5684 5689 5694 5699 5703 5708 5712 5716 5720 5724 5728 5732 5736 5739 5742 5745 5748 5750 5753 5755 5758 5760 5761 5763 5764 5766 5767 5768 5769 5770 5771 5771 5772 5772 5772 5773 5773 5773 5773 5773 5773 5773 5773 5773